Weather History for Show Low, AZ

Change the Weather History Date:

Wednesday, February 20, 2013

  Actual Average Record
Temperature  
Mean Temperature -3 °C -  
Max Temperature 1 °C 8 °C 19 °C (1972)
Min Temperature -7 °C -1 °C -13 °C (1975)
Degree Days  
Heating Degree Days 39    
Moisture  
Dew Point -7 °C    
Average Humidity 77    
Maximum Humidity 93    
Minimum Humidity 41    
Precipitation  
Precipitation 0.00 mm - - ()
Sea Level Pressure  
Sea Level Pressure 1004 hPa    
Wind  
Wind Speed 26 km/h (SSW)    
Max Wind Speed 42 km/h    
Max Gust Speed 61 km/h    
Visibility 10 kilometers    
Events Rain , Snow    
Averages and records for this station are not official NWS values.
T = Trace of Precipitation, MM = Missing Value Source: NWS Daily Summary

Daily Weather History Graph

Daily Weather History Graph

Search for Another Location

Airport:

Trip Planner

Search our weather history database for the weather conditions in past years. The results will help you decide how hot, cold, wet, or windy it might be!

Date:

Astronomy

Feb. 20, 2013 Rise Set
Actual Time 6:59 AM MST 6:08 PM MST
Civil Twilight 6:33 AM MST 6:34 PM MST
Nautical Twilight 6:04 AM MST 7:03 PM MST
Astronomical Twilight 5:35 AM MST 7:32 PM MST
Moon 1:40 PM MST (2/20) 3:14 AM MST (2/20)
Length of Visible Light 12h 00m
Length of Day
11h 09m
Waxing Gibbous, 76% of the Moon is Illuminated
Feb 20
Waxing Gibbous
Feb 25
Full
Mar 4
Last Quarter
Mar 11
New
Mar 19
First Quarter

Hourly Weather History & Observations

Time (MST) Temp. Windchill Dew Point Humidity Pressure Visibility Wind Dir Wind Speed Gust Speed Precip Events Conditions
12:15 AM 0.0 °C -5.5 °C -12.0 °C 41% 1004.6 hPa 16.1 km SSW 22.2 km/h / 6.2 m/s 31.5 km/h / 8.7 m/s N/A   Clear
12:35 AM 1.0 °C -4.7 °C -11.0 °C 41% 1004.6 hPa 16.1 km SW 25.9 km/h / 7.2 m/s 38.9 km/h / 10.8 m/s N/A   Clear
12:55 AM 0.0 °C -5.3 °C -11.0 °C 44% 1004.6 hPa 16.1 km SSW 20.4 km/h / 5.7 m/s - N/A   Clear
1:15 AM 0.0 °C -5.3 °C -10.0 °C 48% 1004.6 hPa 16.1 km SSW 20.4 km/h / 5.7 m/s - N/A   Clear
1:35 AM 0.0 °C -5.0 °C -10.0 °C 48% 1004.6 hPa 16.1 km SSW 18.5 km/h / 5.1 m/s - N/A   Clear
1:55 AM 0.0 °C -5.3 °C -10.0 °C 48% 1004.3 hPa 16.1 km SSW 20.4 km/h / 5.7 m/s - N/A   Clear
2:15 AM 0.0 °C -5.8 °C -9.0 °C 51% 1003.9 hPa 16.1 km SSW 24.1 km/h / 6.7 m/s - N/A   Partly Cloudy
2:35 AM 0.0 °C -6.6 °C -9.0 °C 51% 1003.6 hPa 16.1 km SSW 31.5 km/h / 8.7 m/s - N/A   Scattered Clouds
2:55 AM 0.0 °C -6.8 °C -8.0 °C 55% 1003.3 hPa 16.1 km SSW 33.3 km/h / 9.3 m/s 48.2 km/h / 13.4 m/s N/A   Partly Cloudy
3:15 AM 0.0 °C -6.8 °C -8.0 °C 55% 1003.3 hPa 16.1 km SSW 33.3 km/h / 9.3 m/s 44.4 km/h / 12.3 m/s N/A   Clear
3:35 AM 0.0 °C -6.8 °C -7.0 °C 60% 1003.3 hPa 16.1 km SSW 33.3 km/h / 9.3 m/s 48.2 km/h / 13.4 m/s N/A   Clear
3:55 AM 0.0 °C -6.4 °C -7.0 °C 60% 1003.3 hPa 16.1 km SSW 29.6 km/h / 8.2 m/s 37.0 km/h / 10.3 m/s N/A   Clear
4:15 AM -1.0 °C -7.5 °C -7.0 °C 64% 1003.3 hPa 16.1 km SSW 27.8 km/h / 7.7 m/s 40.7 km/h / 11.3 m/s N/A   Mostly Cloudy
4:35 AM -2.0 °C -8.8 °C -7.0 °C 69% 1002.9 hPa 16.1 km SSW 27.8 km/h / 7.7 m/s 35.2 km/h / 9.8 m/s N/A   Mostly Cloudy
4:55 AM -2.0 °C -8.1 °C -7.0 °C 69% 1002.9 hPa 16.1 km SSW 22.2 km/h / 6.2 m/s 35.2 km/h / 9.8 m/s N/A   Scattered Clouds
5:15 AM -2.0 °C -8.1 °C -6.0 °C 74% 1002.9 hPa 16.1 km South 22.2 km/h / 6.2 m/s 33.3 km/h / 9.3 m/s N/A   Scattered Clouds
5:35 AM -1.0 °C -7.7 °C -5.0 °C 75% 1002.9 hPa 8.0 km SSW 29.6 km/h / 8.2 m/s 38.9 km/h / 10.8 m/s N/A Rain Light Freezing Rain
5:55 AM -1.0 °C -8.1 °C -5.0 °C 75% 1002.6 hPa 16.1 km South 33.3 km/h / 9.3 m/s 42.6 km/h / 11.8 m/s N/A   Mostly Cloudy
6:15 AM -1.0 °C -7.0 °C -5.0 °C 75% 1002.6 hPa 16.1 km South 24.1 km/h / 6.7 m/s 38.9 km/h / 10.8 m/s N/A   Overcast
6:35 AM -2.0 °C -8.8 °C -4.0 °C 86% 1002.9 hPa 1.2 km SSW 27.8 km/h / 7.7 m/s - N/A Snow Light Snow
6:55 AM -2.0 °C -8.6 °C -4.0 °C 86% 1002.6 hPa 3.2 km South 25.9 km/h / 7.2 m/s 31.5 km/h / 8.7 m/s N/A Rain Light Freezing Rain
7:15 AM -2.0 °C -7.8 °C -4.0 °C 86% 1002.9 hPa 9.7 km SSW 20.4 km/h / 5.7 m/s - N/A   Overcast
7:35 AM -2.0 °C -8.1 °C -4.0 °C 86% 1002.9 hPa 8.0 km South 22.2 km/h / 6.2 m/s 31.5 km/h / 8.7 m/s N/A Rain Light Freezing Rain
7:55 AM -2.0 °C -8.8 °C -4.0 °C 86% 1002.9 hPa 4.0 km SSW 27.8 km/h / 7.7 m/s 37.0 km/h / 10.3 m/s N/A Rain Light Freezing Rain
8:15 AM -2.0 °C -7.8 °C -4.0 °C 86% 1002.9 hPa 1.6 km SSW 20.4 km/h / 5.7 m/s 27.8 km/h / 7.7 m/s N/A Snow Light Snow
8:35 AM -2.0 °C -7.2 °C -3.0 °C 93% 1002.9 hPa 0.8 km SSW 16.7 km/h / 4.6 m/s 25.9 km/h / 7.2 m/s N/A Snow Snow
8:55 AM -2.0 °C -8.6 °C -3.0 °C 93% 1002.9 hPa 3.2 km South 25.9 km/h / 7.2 m/s - N/A Snow Light Snow
9:15 AM -2.0 °C -8.8 °C -4.0 °C 86% 1002.9 hPa 2.4 km South 27.8 km/h / 7.7 m/s 40.7 km/h / 11.3 m/s N/A Rain Light Freezing Rain
9:35 AM -2.0 °C -9.4 °C -4.0 °C 86% 1002.9 hPa 11.3 km South 33.3 km/h / 9.3 m/s 44.4 km/h / 12.3 m/s N/A   Mostly Cloudy
9:55 AM -1.0 °C -8.4 °C -4.0 °C 80% 1002.6 hPa 12.9 km South 37.0 km/h / 10.3 m/s 46.3 km/h / 12.9 m/s N/A   Mostly Cloudy
10:15 AM -1.0 °C -8.3 °C -4.0 °C 80% 1002.3 hPa 2.8 km South 35.2 km/h / 9.8 m/s - N/A Snow Light Snow
10:35 AM -1.0 °C -8.8 °C -4.0 °C 80% 1002.3 hPa 12.9 km South 40.7 km/h / 11.3 m/s 51.9 km/h / 14.4 m/s N/A   Mostly Cloudy
10:55 AM -1.0 °C -8.9 °C -4.0 °C 80% 1002.3 hPa 14.5 km South 42.6 km/h / 11.8 m/s 53.7 km/h / 14.9 m/s N/A   Scattered Clouds
11:15 AM 0.0 °C -7.4 °C -4.0 °C 75% 1002.3 hPa 14.5 km South 40.7 km/h / 11.3 m/s 61.1 km/h / 17.0 m/s N/A   Mostly Cloudy
11:35 AM 0.0 °C -7.4 °C -4.0 °C 75% 1002.3 hPa 16.1 km South 40.7 km/h / 11.3 m/s 50.0 km/h / 13.9 m/s N/A   Partly Cloudy
11:55 AM -1.0 °C -8.3 °C -4.0 °C 80% 1002.6 hPa 2.0 km SSW 35.2 km/h / 9.8 m/s 48.2 km/h / 13.4 m/s N/A Snow Light Snow
12:35 PM -2.0 °C -8.8 °C -4.0 °C 86% 1002.3 hPa 4.8 km South 27.8 km/h / 7.7 m/s 38.9 km/h / 10.8 m/s N/A Snow Light Snow
12:55 PM -2.0 °C -8.6 °C -4.0 °C 86% 1001.9 hPa 0.4 km SSW 25.9 km/h / 7.2 m/s 40.7 km/h / 11.3 m/s N/A Snow Heavy Snow
1:15 PM -2.0 °C -7.2 °C -3.0 °C 93% 1001.2 hPa 0.8 km South 16.7 km/h / 4.6 m/s - N/A Snow Snow
1:35 PM -2.0 °C -8.1 °C -3.0 °C 93% 1000.9 hPa 0.4 km South 22.2 km/h / 6.2 m/s - N/A Snow Heavy Snow
1:55 PM -2.0 °C -7.5 °C -3.0 °C 93% 1001.2 hPa 1.2 km South 18.5 km/h / 5.1 m/s - N/A Snow Light Snow
2:15 PM -2.0 °C -6.4 °C -3.0 °C 93% 1001.2 hPa 0.8 km South 13.0 km/h / 3.6 m/s - N/A Snow Snow
2:35 PM -2.0 °C -7.2 °C -4.0 °C 86% 1001.2 hPa 0.4 km South 16.7 km/h / 4.6 m/s 27.8 km/h / 7.7 m/s N/A Snow Heavy Snow
2:55 PM -3.0 °C -9.3 °C -4.0 °C 93% 1001.6 hPa 0.4 km WSW 22.2 km/h / 6.2 m/s 44.4 km/h / 12.3 m/s N/A Snow Heavy Snow
3:15 PM -4.0 °C -10.9 °C -6.0 °C 86% 1002.6 hPa 0.8 km WSW 24.1 km/h / 6.7 m/s 46.3 km/h / 12.9 m/s N/A Snow Snow
3:35 PM -4.0 °C -12.0 °C -6.0 °C 86% 1002.9 hPa 0.8 km SW 33.3 km/h / 9.3 m/s 44.4 km/h / 12.3 m/s N/A Snow Snow
3:55 PM -5.0 °C -13.4 °C -7.0 °C 86% 1003.6 hPa 0.8 km SW 33.3 km/h / 9.3 m/s 48.2 km/h / 13.4 m/s N/A Snow Snow
4:15 PM -5.0 °C -10.9 °C -8.0 °C 80% 1003.6 hPa 1.6 km SSW 16.7 km/h / 4.6 m/s - N/A Snow Light Snow
4:35 PM -5.0 °C -10.5 °C -7.0 °C 86% 1003.3 hPa 2.4 km South 14.8 km/h / 4.1 m/s - N/A Snow Light Snow
4:55 PM -5.0 °C -11.3 °C -8.0 °C 80% 1003.6 hPa 12.9 km South 18.5 km/h / 5.1 m/s - N/A   Overcast
5:15 PM -5.0 °C -10.9 °C -8.0 °C 80% 1003.3 hPa 16.1 km South 16.7 km/h / 4.6 m/s - N/A   Scattered Clouds
5:35 PM -5.0 °C -11.9 °C -8.0 °C 80% 1003.6 hPa 16.1 km South 22.2 km/h / 6.2 m/s - N/A   Clear
5:55 PM -5.0 °C -11.3 °C -8.0 °C 80% 1003.6 hPa 16.1 km SSW 18.5 km/h / 5.1 m/s 33.3 km/h / 9.3 m/s N/A   Clear
6:15 PM -5.0 °C -11.9 °C -8.0 °C 80% 1003.6 hPa 16.1 km SSW 22.2 km/h / 6.2 m/s 29.6 km/h / 8.2 m/s N/A   Clear
6:35 PM -6.0 °C -12.8 °C -8.0 °C 86% 1003.9 hPa 16.1 km SSW 20.4 km/h / 5.7 m/s 31.5 km/h / 8.7 m/s N/A   Scattered Clouds
6:55 PM -7.0 °C -13.4 °C -9.0 °C 86% 1004.6 hPa 16.1 km SSW 16.7 km/h / 4.6 m/s - N/A   Partly Cloudy
7:15 PM -7.0 °C -13.4 °C -9.0 °C 86% 1005.0 hPa 16.1 km South 16.7 km/h / 4.6 m/s - N/A   Mostly Cloudy
7:35 PM -7.0 °C -13.4 °C -9.0 °C 86% 1005.0 hPa 16.1 km South 16.7 km/h / 4.6 m/s - N/A   Mostly Cloudy
7:55 PM -6.0 °C -11.3 °C -8.0 °C 86% 1005.6 hPa 16.1 km SW 13.0 km/h / 3.6 m/s - N/A   Overcast
8:15 PM -6.0 °C -12.1 °C -8.0 °C 86% 1005.6 hPa 16.1 km SSW 16.7 km/h / 4.6 m/s - N/A   Overcast
8:35 PM -5.0 °C -11.9 °C -8.0 °C 80% 1005.6 hPa 16.1 km SSW 22.2 km/h / 6.2 m/s 27.8 km/h / 7.7 m/s N/A   Overcast
8:55 PM -5.0 °C -12.7 °C -8.0 °C 80% 1006.0 hPa 16.1 km SSW 27.8 km/h / 7.7 m/s 33.3 km/h / 9.3 m/s N/A   Overcast
9:15 PM -5.0 °C -12.2 °C -8.0 °C 80% 1006.0 hPa 16.1 km SSW 24.1 km/h / 6.7 m/s - N/A   Overcast
9:35 PM -5.0 °C -12.4 °C -8.0 °C 80% 1006.3 hPa 16.1 km SW 25.9 km/h / 7.2 m/s - N/A   Overcast
9:55 PM -5.0 °C -12.4 °C -8.0 °C 80% 1006.7 hPa 16.1 km SSW 25.9 km/h / 7.2 m/s 31.5 km/h / 8.7 m/s N/A   Overcast
10:15 PM -5.0 °C -11.6 °C -8.0 °C 80% 1007.0 hPa 16.1 km SSW 20.4 km/h / 5.7 m/s - N/A   Overcast
10:35 PM -5.0 °C -12.2 °C -8.0 °C 80% 1007.0 hPa 11.3 km SSW 24.1 km/h / 6.7 m/s 33.3 km/h / 9.3 m/s N/A Snow Light Snow
10:55 PM -6.0 °C -13.2 °C -8.0 °C 86% 1007.0 hPa 2.0 km SW 22.2 km/h / 6.2 m/s - N/A Snow Light Snow
11:15 PM -6.0 °C -13.5 °C -8.0 °C 86% 1007.0 hPa 1.6 km SSW 24.1 km/h / 6.7 m/s - N/A Snow Light Snow
11:35 PM -6.0 °C -13.2 °C -8.0 °C 86% 1007.3 hPa 1.6 km SSW 22.2 km/h / 6.2 m/s 31.5 km/h / 8.7 m/s N/A Snow Light Snow
11:55 PM -6.0 °C -14.0 °C -8.0 °C 86% 1007.3 hPa 1.6 km SSW 27.8 km/h / 7.7 m/s - N/A Snow Light Snow